• In Netherlands
  • List of Countries
  • For 7 days
  • Water Temperature
  • Satellite Maps
  • Weather Map
  • Weather Widgets
  • user-avatar
    Login

    Hourly Weather Natitingou

    Today, 25 April, Tuesday

    Time Temperature Precipitation Wind Pressure Humidity
    00:00 +29°C° 0 mm 3 mps 717 mmHg 56%
    01:00 +29°C° 0 mm 2 mps 717 mmHg 57%
    02:00 +29°C° 0 mm 2 mps 716 mmHg 59%
    03:00 +29°C° 0 mm 2 mps 716 mmHg 61%
    04:00 +28°C° 0 mm 2 mps 716 mmHg 62%
    05:00 +28°C° 0 mm 1 mps 716 mmHg 63%
    06:00 +28°C° 0 mm 1 mps 716 mmHg 64%
    07:00 +30°C° 0 mm 2 mps 717 mmHg 58%
    08:00 +32°C° 0 mm 2 mps 717 mmHg 51%
    09:00 +35°C° 0 mm 2 mps 718 mmHg 45%
    10:00 +37°C° 0 mm 2 mps 717 mmHg 39%
    11:00 +39°C° 0 mm 2 mps 717 mmHg 33%
    12:00 +41°C° 0 mm 1 mps 717 mmHg 27%
    13:00 +41°C° 0 mm 1 mps 716 mmHg 27%
    14:00 +41°C° 0 mm 1 mps 715 mmHg 27%
    15:00 +37°C° 0 mm 0 mps 714 mmHg 26%
    16:00 +39°C° 0 mm 1 mps 714 mmHg 29%
    17:00 +37°C° 0 mm 1 mps 714 mmHg 31%
    18:00 +35°C° 0 mm 1 mps 714 mmHg 34%
    19:00 +35°C° 0.1 mm 1 mps 714 mmHg 35%
    20:00 +34°C° 0.1 mm 1 mps 715 mmHg 37%
    21:00 +34°C° 0.1 mm 2 mps 715 mmHg 39%
    22:00 +32°C° 0 mm 2 mps 716 mmHg 43%
    23:00 +31°C° 0 mm 2 mps 716 mmHg 46%

    Tomorrow, 26 April, Wednesday

    Time Temperature Precipitation Wind Pressure Humidity
    00:00 +31°C° 0 mm 3 mps 716 mmHg 49%
    01:00 +30°C° 0 mm 3 mps 716 mmHg 54%
    02:00 +29°C° 0 mm 2 mps 715 mmHg 59%
    03:00 +29°C° 0 mm 2 mps 715 mmHg 64%
    04:00 +28°C° 0 mm 3 mps 715 mmHg 66%
    05:00 +28°C° 0 mm 3 mps 715 mmHg 69%
    06:00 +27°C° 0 mm 3 mps 716 mmHg 71%
    07:00 +29°C° 0 mm 3 mps 716 mmHg 65%
    08:00 +30°C° 0 mm 3 mps 717 mmHg 60%
    09:00 +33°C° 0 mm 3 mps 717 mmHg 54%
    10:00 +35°C° 0 mm 3 mps 717 mmHg 48%
    11:00 +37°C° 0 mm 3 mps 717 mmHg 43%
    12:00 +39°C° 0 mm 3 mps 717 mmHg 37%
    13:00 +39°C° 0 mm 2 mps 716 mmHg 34%
    14:00 +40°C° 0 mm 2 mps 715 mmHg 31%
    15:00 +41°C° 0 mm 2 mps 714 mmHg 29%
    16:00 +39°C° 0.1 mm 1 mps 714 mmHg 33%
    17:00 +37°C° 0.1 mm 1 mps 714 mmHg 37%
    18:00 +35°C° 0.1 mm 1 mps 714 mmHg 41%
    19:00 +34°C° 3.9 mm 2 mps 715 mmHg 51%
    20:00 +31°C° 3.9 mm 3 mps 715 mmHg 62%
    21:00 +29°C° 3.9 mm 4 mps 716 mmHg 72%
    22:00 +28°C° 1.5 mm 3 mps 716 mmHg 74%
    23:00 +28°C° 1.5 mm 3 mps 716 mmHg 76%

    Day after tomorrow, 27 April, Thursday

    Time Temperature Precipitation Wind Pressure Humidity
    00:00 +27°C° 1.5 mm 2 mps 717 mmHg 78%
    01:00 +27°C° 0.4 mm 2 mps 716 mmHg 79%
    02:00 +27°C° 0.4 mm 3 mps 716 mmHg 81%
    03:00 +26°C° 0.4 mm 3 mps 715 mmHg 82%
    04:00 +26°C° 0 mm 3 mps 716 mmHg 82%
    05:00 +26°C° 0 mm 3 mps 716 mmHg 83%
    06:00 +26°C° 0 mm 3 mps 716 mmHg 83%
    07:00 +27°C° 0 mm 4 mps 717 mmHg 77%
    08:00 +28°C° 0 mm 4 mps 718 mmHg 71%
    09:00 +30°C° 0 mm 4 mps 718 mmHg 65%
    10:00 +32°C° 0 mm 4 mps 718 mmHg 59%
    11:00 +34°C° 0 mm 3 mps 718 mmHg 53%
    12:00 +36°C° 0 mm 3 mps 717 mmHg 48%
    13:00 +36°C° 0 mm 3 mps 716 mmHg 45%
    14:00 +37°C° 0 mm 2 mps 716 mmHg 42%
    15:00 +38°C° 0 mm 2 mps 715 mmHg 39%
    16:00 +35°C° 0 mm 1 mps 715 mmHg 42%
    17:00 +34°C° 0 mm 1 mps 715 mmHg 46%
    18:00 +33°C° 0 mm 1 mps 715 mmHg 50%
    19:00 +32°C° 0 mm 1 mps 716 mmHg 51%
    20:00 +32°C° 0 mm 1 mps 716 mmHg 52%
    21:00 +31°C° 0 mm 1 mps 717 mmHg 53%
    22:00 +31°C° 0 mm 2 mps 717 mmHg 55%
    23:00 +30°C° 0 mm 2 mps 716 mmHg 57%

    28 April, Friday

    Time Temperature Precipitation Wind Pressure Humidity
    00:00 +30°C° 0 mm 2 mps 716 mmHg 59%
    01:00 +29°C° 0 mm 2 mps 716 mmHg 61%
    02:00 +29°C° 0 mm 2 mps 716 mmHg 64%
    03:00 +28°C° 0 mm 2 mps 715 mmHg 67%
    04:00 +28°C° 0 mm 2 mps 716 mmHg 68%
    05:00 +27°C° 0 mm 2 mps 716 mmHg 69%
    06:00 +27°C° 0 mm 2 mps 717 mmHg 71%
    07:00 +29°C° 0 mm 3 mps 717 mmHg 65%
    08:00 +30°C° 0 mm 3 mps 718 mmHg 59%
    09:00 +33°C° 0 mm 4 mps 718 mmHg 53%
    10:00 +34°C° 0 mm 3 mps 718 mmHg 49%
    11:00 +36°C° 0 mm 3 mps 717 mmHg 44%
    12:00 +37°C° 0 mm 3 mps 717 mmHg 40%
    13:00 +38°C° 0 mm 3 mps 716 mmHg 37%
    14:00 +39°C° 0 mm 2 mps 715 mmHg 35%
    15:00 +39°C° 0 mm 2 mps 715 mmHg 33%
    16:00 +37°C° 0.2 mm 1 mps 715 mmHg 37%
    17:00 +35°C° 0.2 mm 1 mps 715 mmHg 41%
    18:00 +34°C° 0.2 mm 1 mps 715 mmHg 46%
    19:00 +34°C° 0.4 mm 2 mps 716 mmHg 50%
    20:00 +32°C° 0.4 mm 2 mps 716 mmHg 55%
    21:00 +30°C° 0.4 mm 2 mps 717 mmHg 59%
    22:00 +30°C° 1.9 mm 2 mps 717 mmHg 64%
    23:00 +29°C° 1.9 mm 1 mps 717 mmHg 68%

    29 April, Saturday

    Time Temperature Precipitation Wind Pressure Humidity
    00:00 +28°C° 1.9 mm 1 mps 717 mmHg 73%
    01:00 +28°C° 0.5 mm 1 mps 717 mmHg 75%
    02:00 +27°C° 0.5 mm 1 mps 716 mmHg 77%
    03:00 +27°C° 0.5 mm 2 mps 716 mmHg 78%
    04:00 +27°C° 0 mm 2 mps 716 mmHg 79%
    05:00 +27°C° 0 mm 2 mps 716 mmHg 80%
    06:00 +26°C° 0 mm 2 mps 717 mmHg 80%
    07:00 +28°C° 0 mm 2 mps 717 mmHg 74%
    08:00 +29°C° 0 mm 3 mps 718 mmHg 67%
    09:00 +31°C° 0 mm 3 mps 718 mmHg 60%
    10:00 +33°C° 0 mm 3 mps 718 mmHg 55%
    11:00 +34°C° 0 mm 3 mps 717 mmHg 49%
    12:00 +36°C° 0 mm 3 mps 717 mmHg 44%
    13:00 +37°C° 0 mm 2 mps 716 mmHg 41%
    14:00 +37°C° 0 mm 2 mps 716 mmHg 38%
    15:00 +38°C° 0 mm 2 mps 715 mmHg 36%
    16:00 +36°C° 0 mm 1 mps 715 mmHg 39%
    17:00 +34°C° 0 mm 1 mps 715 mmHg 43%
    18:00 +33°C° 0 mm 1 mps 715 mmHg 47%
    19:00 +32°C° 0 mm 1 mps 716 mmHg 48%
    20:00 +32°C° 0 mm 1 mps 716 mmHg 49%
    21:00 +31°C° 0 mm 1 mps 717 mmHg 51%
    22:00 +31°C° 0.1 mm 1 mps 716 mmHg 53%
    23:00 +30°C° 0.1 mm 2 mps 716 mmHg 56%

    30 April, Sunday

    Time Temperature Precipitation Wind Pressure Humidity
    00:00 +30°C° 0.1 mm 2 mps 716 mmHg 59%
    01:00 +29°C° 0 mm 2 mps 716 mmHg 61%
    02:00 +29°C° 0 mm 3 mps 716 mmHg 63%
    03:00 +28°C° 0 mm 3 mps 716 mmHg 65%
    04:00 +27°C° 1.6 mm 3 mps 716 mmHg 72%
    05:00 +27°C° 1.6 mm 3 mps 717 mmHg 78%
    06:00 +26°C° 1.6 mm 3 mps 717 mmHg 84%
    07:00 +27°C° 0.1 mm 3 mps 717 mmHg 78%
    08:00 +28°C° 0.1 mm 3 mps 718 mmHg 73%
    09:00 +30°C° 0.1 mm 3 mps 718 mmHg 67%
    10:00 +31°C° 0 mm 3 mps 717 mmHg 60%
    11:00 +34°C° 0 mm 3 mps 717 mmHg 54%
    12:00 +36°C° 0 mm 3 mps 716 mmHg 48%
    13:00 +36°C° 0 mm 3 mps 716 mmHg 45%
    14:00 +37°C° 0 mm 2 mps 715 mmHg 43%
    15:00 +37°C° 0 mm 2 mps 715 mmHg 41%
    16:00 +36°C° 0 mm 2 mps 715 mmHg 44%
    17:00 +34°C° 0 mm 1 mps 715 mmHg 48%
    18:00 +33°C° 0 mm 1 mps 715 mmHg 52%
    19:00 +32°C° 0.1 mm 1 mps 715 mmHg 54%
    20:00 +31°C° 0.1 mm 1 mps 716 mmHg 56%
    21:00 +30°C° 0.1 mm 1 mps 716 mmHg 58%
    22:00 +30°C° 0.2 mm 2 mps 716 mmHg 61%
    23:00 +29°C° 0.2 mm 2 mps 716 mmHg 64%
    Show more